Location: Altoona
(40.5167°N, 78.4000°W)
Time: 22:50:46
(UTC-05:00)

Cosmos 2237 Rocket - Pass Details

Date: 21 August 2017
Orbit: 833 x 851 km, 71.0° (Epoch: 22 November)

Event Time Altitude Azimuth Distance (km) Brightness Sun altitude
Exits shadow 22:32:05 15° 56° (ENE) 2,113 4.1 -25.4°
Drops below altitude 10° 22:33:15 10° 48° (NE) 2,448 4.6 -25.5°
Sets 22:36:03 0° 36° (NE) 3,388 5.5 -25.9°
